EW1653 Weather Reports


Display with metric or nautical units.
time (UTC)temp
F
wind
direction
speed
MPH
gust
MPH
rain 1hr
in
rain 24hr
in
rain mn
in
humidity
%
barometer
mb
20221003015522 52 354 14.0 25.0 0.01 0.69 0.69 98 1015.8
20221003015018 52 27 11.0 26.0 0.02 0.69 0.69 98 1015.9
20221003014519 52 351 16.0 26.0 0.02 0.69 0.69 98 1016.0
20221003014020 52 13 12.0 26.0 0.02 0.69 0.69 98 1016.0
20221003013516 52 13 15.0 26.0 0.01 0.68 0.68 98 1016.1
20221003013017 52 30 12.0 25.0 0.01 0.68 0.68 98 1016.1
20221003012515 52 20 12.0 27.0 0.02 0.68 0.68 98 1016.0
20221003012013 52 352 13.0 27.0 0.02 0.68 0.68 98 1016.0
20221003011515 53 41 13.0 25.0 0.02 0.68 0.68 98 1015.8
20221003011011 53 36 12.0 26.0 0.02 0.68 0.68 98 1015.7
20221003010514 53 25 16.0 26.0 0.02 0.68 0.68 98 1015.5
20221003010010 53 14 15.0 32.0 0.03 0.68 0.68 98 1015.4
20221003005509 53 46 17.0 32.0 0.03 0.68 0.68 98 1015.4
20221003005008 53 21 12.0 26.0 0.02 0.67 0.67 98 1015.5
20221003004511 53 32 11.0 26.0 0.02 0.67 0.67 98 1015.7
20221003004007 54 24 14.0 24.0 0.02 0.67 0.67 98 1015.8
20221003003506 54 68 13.0 33.0 0.02 0.67 0.67 98 1015.7
20221003003012 54 340 18.0 33.0 0.03 0.67 0.67 98 1015.5
20221003002505 54 49 15.0 25.0 0.02 0.66 0.66 98 1015.5
20221003002003 54 30 13.0 24.0 0.02 0.66 0.66 98 1015.4
20221003001502 54 38 13.0 24.0 0.02 0.66 0.66 98 1015.5
20221003001002 54 59 12.0 23.0 0.02 0.66 0.66 98 1015.5
20221003000502 54 67 12.0 24.0 0.02 0.66 0.66 98 1015.4
20221003000001 54 25 12.0 28.0 0.02 0.65 0.65 98 1015.4
20221002235601 54 28 13.0 28.0 0.02 0.65 0.65 98 1015.5
20221002235058 55 65 13.0 26.0 0.02 0.65 0.65 98 1015.5
20221002234558 55 3 14.0 26.0 0.02 0.65 0.65 98 1015.4
20221002234100 55 51 13.0 22.0 0.02 0.65 0.65 98 1015.4
20221002233557 55 31 10.0 22.0 0.02 0.65 0.65 98 1015.4
20221002233104 55 59 9.0 19.0 0.02 0.64 0.64 98 1015.3
20221002232557 55 33 13.0 24.0 0.02 0.64 0.64 98 1015.2
20221002232053 55 43 13.0 24.0 0.02 0.64 0.64 98 1015.0
20221002231552 56 56 12.0 24.0 0.02 0.64 0.64 98 1015.0
20221002231050 56 9 10.0 24.0 0.02 0.64 0.64 98 1014.9
20221002230550 56 27 11.0 22.0 0.02 0.64 0.64 98 1015.0
20221002230049 56 332 10.0 22.0 0.01 0.63 0.63 98 1014.9
20221002225548 57 58 12.0 26.0 0.01 0.63 0.63 98 1014.9
20221002225048 57 8 18.0 31.0 0.01 0.63 0.63 98 1014.7
20221002224557 57 59 15.0 31.0 0.01 0.63 0.63 98 1014.8
20221002224046 57 52 15.0 27.0 0.01 0.63 0.63 98 1014.5
20221002223545 57 58 19.0 29.0 0.01 0.63 0.63 98 1014.6
20221002223048 57 53 17.0 26.0 0.00 0.62 0.62 98 1014.6
20221002222544 57 25 17.0 26.0 0.00 0.62 0.62 98 1014.6
20221002222043 57 45 16.0 26.0 0.00 0.62 0.62 98 1014.5
20221002221550 58 51 13.0 27.0 0.00 0.62 0.62 98 1014.6
20221002221044 58 79 18.0 27.0 0.00 0.62 0.62 98 1014.5
20221002220541 58 37 14.0 28.0 0.00 0.62 0.62 98 1014.4
20221002220041 58 35 18.0 29.0 0.00 0.62 0.62 98 1014.4
20221002215542 58 34 16.0 34.0 0.00 0.62 0.62 98 1014.2
20221002215040 58 44 20.0 34.0 0.00 0.62 0.62 98 1014.4
20221002214539 58 64 20.0 31.0 0.01 0.62 0.62 98 1014.0
20221002214040 58 56 17.0 33.0 0.02 0.62 0.62 98 1013.6
20221002213538 58 34 20.0 38.0 0.03 0.62 0.62 98 1013.6
20221002213038 58 36 25.0 38.0 0.04 0.62 0.62 98 1013.5
20221002212536 59 51 21.0 35.0 0.05 0.62 0.62 98 1013.4
20221002212035 59 34 17.0 30.0 0.06 0.62 0.62 98 1013.3
20221002211542 59 59 17.0 30.0 0.07 0.62 0.62 98 1013.2
20221002211033 59 54 19.0 30.0 0.07 0.62 0.62 98 1012.8
20221002210534 59 67 18.0 32.0 0.07 0.62 0.62 98 1012.8
20221002210032 59 37 23.0 38.0 0.08 0.62 0.62 98 1012.7
20221002205531 59 39 22.0 38.0 0.08 0.62 0.62 98 1012.6
20221002205034 60 77 15.0 33.0 0.08 0.61 0.61 98 1012.3
20221002204534 60 65 14.0 33.0 0.08 0.61 0.61 98 1012.3
20221002204030 60 46 18.0 34.0 0.07 0.59 0.59 98 1012.4
20221002203631 60 65 17.0 34.0 0.08 0.59 0.59 98 1012.4
20221002203027 60 66 15.0 29.0 0.07 0.57 0.57 98 1012.5
20221002202530 60 30 14.0 32.0 0.07 0.56 0.56 98 1012.5
20221002202027 60 65 22.0 32.0 0.06 0.56 0.56 98 1012.7
20221002201525 60 63 16.0 30.0 0.06 0.55 0.55 98 1012.5
20221002201024 60 39 10.0 23.0 0.07 0.55 0.55 98 1012.4
20221002200528 60 35 15.0 25.0 0.06 0.54 0.54 98 1012.4
20221002200023 60 68 14.0 33.0 0.07 0.54 0.54 98 1012.3
20221002195526 60 14 13.0 31.0 0.08 0.54 0.54 98 1012.2
20221002195022 60 47 20.0 31.0 0.07 0.53 0.53 98 1012.2
20221002194521 60 70 19.0 31.0 0.08 0.53 0.53 98 1012.2
20221002194025 61 53 19.0 26.0 0.08 0.52 0.52 98 1012.2
20221002193523 61 56 11.0 24.0 0.07 0.51 0.51 98 1012.2
20221002193018 61 31 13.0 25.0 0.08 0.51 0.51 98 1012.1
20221002192520 61 34 16.0 30.0 0.08 0.50 0.50 99 1012.2
20221002192017 61 48 13.0 30.0 0.07 0.49 0.49 98 1012.1
20221002191532 61 70 16.0 28.0 0.08 0.49 0.49 98 1011.9
20221002191016 61 44 13.0 24.0 0.08 0.48 0.48 99 1012.0
20221002190515 61 66 13.0 26.0 0.08 0.48 0.48 99 1012.0
20221002190027 61 21 18.0 26.0 0.08 0.47 0.47 99 1012.0
20221002185515 61 54 14.0 26.0 0.08 0.46 0.46 99 1012.0
20221002185016 61 58 12.0 26.0 0.08 0.46 0.46 98 1012.0
20221002184514 61 68 15.0 26.0 0.07 0.45 0.45 98 1012.0
20221002184013 61 35 17.0 28.0 0.06 0.44 0.44 98 1011.9
20221002183513 61 60 19.0 28.0 0.06 0.44 0.44 98 1012.0
20221002183012 61 59 11.0 27.0 0.05 0.43 0.43 98 1011.8
20221002182512 61 58 10.0 21.0 0.04 0.42 0.42 99 1011.8
20221002182012 61 63 12.0 21.0 0.03 0.41 0.41 98 1011.9
20221002181513 61 69 12.0 25.0 0.03 0.41 0.41 98 1011.9
20221002181010 61 32 12.0 25.0 0.02 0.40 0.40 98 1012.0
20221002180509 61 49 11.0 23.0 0.02 0.39 0.39 98 1011.9
20221002180013 61 72 9.0 26.0 0.02 0.39 0.39 98 1012.1
20221002175512 61 65 13.0 26.0 0.01 0.38 0.38 98 1012.0
20221002175011 61 49 13.0 26.0 0.02 0.38 0.38 98 1012.0
20221002174508 61 47 15.0 26.0 0.02 0.38 0.38 98 1011.9
20221002174007 61 73 17.0 31.0 0.03 0.38 0.38 98 1012.0
20221002173506 61 65 20.0 31.0 0.04 0.38 0.38 98 1012.0
20221002173008 61 56 13.0 27.0 0.05 0.38 0.38 98 1011.9
20221002172504 61 55 16.0 29.0 0.05 0.38 0.38 98 1011.9
20221002172004 61 58 15.0 26.0 0.06 0.38 0.38 98 1011.9
20221002171503 61 53 15.0 25.0 0.07 0.38 0.38 98 1011.8
20221002171002 61 46 11.0 23.0 0.08 0.38 0.38 98 1011.8
20221002170502 61 96 14.0 21.0 0.07 0.37 0.37 98 1011.8
20221002170001 61 72 8.0 23.0 0.08 0.37 0.37 98 1011.7
20221002165502 61 72 16.0 26.0 0.08 0.37 0.37 98 1011.8
20221002165004 61 34 15.0 27.0 0.08 0.36 0.36 98 1011.7
20221002164559 61 47 15.0 27.0 0.08 0.36 0.36 98 1011.7
20221002164058 61 60 17.0 24.0 0.08 0.35 0.35 98 1011.5
20221002163558 62 71 16.0 24.0 0.08 0.34 0.34 98 1011.7
20221002163057 62 56 14.0 23.0 0.08 0.33 0.33 98 1011.7
20221002162557 62 72 15.0 25.0 0.09 0.33 0.33 98 1011.7
20221002162059 62 58 13.0 25.0 0.09 0.32 0.32 98 1011.6
20221002161602 62 70 14.0 24.0 0.09 0.31 0.31 98 1011.8
20221002161055 62 47 13.0 30.0 0.09 0.30 0.30 98 1011.7
20221002160555 62 54 17.0 32.0 0.09 0.30 0.30 98 1011.6
20221002160055 62 50 17.0 29.0 0.09 0.30 0.30 98 1011.8
20221002155553 62 68 14.0 25.0 0.09 0.28 0.28 98 1011.7
20221002155054 62 53 11.0 29.0 0.08 0.28 0.28 98 1011.4
20221002154552 62 41 15.0 28.0 0.09 0.28 0.28 98 1011.5
20221002154051 62 56 11.0 20.0 0.09 0.27 0.27 98 1011.5
20221002153550 63 53 10.0 21.0 0.09 0.26 0.26 98 1011.5
20221002153049 63 65 12.0 22.0 0.09 0.25 0.25 98 1011.5
20221002152549 63 353 13.0 22.0 0.09 0.24 0.24 98 1011.5
20221002152048 64 71 14.0 26.0 0.08 0.22 0.22 99 1011.4
20221002151548 64 25 16.0 26.0 0.10 0.22 0.22 99 1011.4
20221002151047 64 38 12.0 21.0 0.10 0.21 0.21 99 1011.4
20221002150547 64 46 11.0 23.0 0.12 0.21 0.21 99 1011.4
20221002150046 64 33 10.0 23.0 0.13 0.21 0.21 99 1011.4
20221002145547 64 34 8.0 16.0 0.14 0.20 0.20 99 1011.3
20221002145044 63 63 5.0 16.0 0.14 0.19 0.19 98 1011.4
20221002144550 63 79 6.0 15.0 0.15 0.19 0.19 98 1011.3
20221002144045 63 32 9.0 15.0 0.14 0.18 0.18 98 1011.3
20221002143044 63 18 10.0 18.0 0.13 0.16 0.16 98 1011.3
20221002142547 63 49 9.0 18.0 0.12 0.15 0.15 98 1011.3
20221002142043 63 67 9.0 16.0 0.11 0.14 0.14 98 1011.2
20221002141542 63 342 7.0 14.0 0.09 0.12 0.12 98 1011.3
20221002141042 63 14 7.0 17.0 0.09 0.11 0.11 98 1011.2
20221002140541 63 58 6.0 18.0 0.07 0.09 0.09 98 1011.0
20221002140040 64 56 8.0 18.0 0.06 0.08 0.08 98 1011.0
20221002135541 64 52 9.0 17.0 0.05 0.07 0.06 98 1011.0
20221002135039 64 42 8.0 12.0 0.04 0.06 0.05 98 1010.8
20221002134538 64 65 6.0 16.0 0.03 0.05 0.04 98 1010.8
20221002134038 64 58 10.0 16.0 0.03 0.05 0.04 98 1010.8
20221002133538 64 51 10.0 20.0 0.03 0.05 0.04 98 1010.8
20221002133037 64 40 9.0 20.0 0.02 0.04 0.03 98 1010.7
20221002132537 65 60 11.0 21.0 0.02 0.04 0.03 98 1010.7
20221002132036 65 31 8.0 21.0 0.02 0.04 0.03 98 1010.7
20221002131534 64 51 8.0 13.0 0.02 0.04 0.03 98 1010.8
20221002131035 64 63 6.0 13.0 0.01 0.03 0.02 98 1010.8
20221002130534 64 21 5.0 13.0 0.01 0.03 0.02 98 1010.7
20221002130035 64 44 1.0 14.0 0.00 0.02 0.01 98 1010.8
20221002125533 64 27 8.0 14.0 0.00 0.03 0.01 98 1010.7
20221002125033 64 79 2.0 12.0 0.00 0.03 0.01 98 1010.7
20221002124537 64 7 4.0 12.0 0.00 0.03 0.01 98 1010.7
20221002124032 64 25 1.0 11.0 0.00 0.03 0.01 98 1010.7
20221002123533 64 8 3.0 11.0 0.00 0.03 0.01 98 1010.7
20221002123032 64 57 6.0 13.0 0.00 0.03 0.01 98 1010.7
20221002122533 64 45 5.0 14.0 0.00 0.03 0.01 98 1010.7
20221002122133 64 55 6.0 14.0 0.00 0.03 0.01 98 1010.7
20221002121535 63 46 7.0 14.0 0.00 0.03 0.01 98 1010.7
20221002121033 63 38 8.0 15.0 0.00 0.03 0.01 98 1010.6
20221002120529 63 66 8.0 15.0 0.00 0.03 0.01 98 1010.5
20221002120103 63 63 9.0 16.0 0.00 0.03 0.01 98 1010.5
20221002115530 63 66 10.0 17.0 0.00 0.06 0.01 98 1010.6
20221002115029 63 58 10.0 18.0 0.00 0.06 0.01 98 1010.6
20221002114533 63 72 11.0 18.0 0.01 0.06 0.01 98 1010.6
20221002114028 63 61 8.0 16.0 0.01 0.06 0.01 98 1010.5
20221002113526 63 28 8.0 14.0 0.01 0.06 0.01 98 1010.5
20221002113034 63 57 6.0 14.0 0.01 0.06 0.01 98 1010.4
20221002112526 63 72 8.0 17.0 0.01 0.06 0.01 98 1010.5
20221002112026 63 78 9.0 17.0 0.01 0.06 0.01 98 1010.4
20221002111531 63 90 8.0 19.0 0.01 0.06 0.01 97 1010.4
20221002111024 63 49 11.0 19.0 0.01 0.06 0.01 97 1010.3
20221002110523 63 38 10.0 19.0 0.01 0.06 0.01 97 1010.3
20221002110023 63 60 8.0 19.0 0.01 0.06 0.01 97 1010.3
20221002105522 64 46 9.0 16.0 0.01 0.36 0.01 97 1010.3
20221002105021 64 47 10.0 14.0 0.01 0.36 0.01 97 1010.3
20221002104521 64 58 8.0 14.0 0.00 0.35 0.00 97 1010.2
20221002104024 64 58 9.0 19.0 0.00 0.35 0.00 97 1010.3
20221002103522 64 78 11.0 19.0 0.00 0.35 0.00 97 1010.2
20221002103022 64 60 8.0 20.0 0.00 0.35 0.00 97 1010.2
20221002102520 64 86 7.0 20.0 0.00 0.35 0.00 97 1010.2
20221002102021 64 61 9.0 13.0 0.00 0.35 0.00 97 1010.2
20221002101518 64 60 7.0 17.0 0.00 0.35 0.00 97 1010.1
20221002101018 64 49 7.0 17.0 0.00 0.35 0.00 97 1010.2
20221002100522 64 51 8.0 14.0 0.00 0.35 0.00 97 1010.1
20221002100023 64 85 8.0 17.0 0.00 0.35 0.00 97 1010.1
20221002095518 64 58 9.0 15.0 0.00 0.99 0.00 97 1010.0
20221002095016 64 72 10.0 18.0 0.00 0.99 0.00 97 1009.9
20221002064600 65 53 9.0 18.0 0.00 1.57 0.00 98 1010.0
20221002064100 65 72 10.0 18.0 0.00 1.57 0.00 98 1010.0
20221002063557 65 55 6.0 14.0 0.00 1.57 0.00 98 1010.0
20221002063059 65 59 3.0 14.0 0.00 1.57 0.00 98 1010.1
20221002062555 65 66 7.0 17.0 0.00 1.57 0.00 98 1010.1
20221002062055 65 70 9.0 18.0 0.00 1.57 0.00 98 1010.1
20221002061554 65 55 7.0 18.0 0.00 1.57 0.00 98 1010.2
20221002061054 65 81 9.0 18.0 0.00 1.57 0.00 98 1010.2
20221002060558 65 72 7.0 15.0 0.00 1.57 0.00 98 1010.2
20221002060104 65 68 5.0 14.0 0.00 1.57 0.00 98 1010.2
20221002055553 65 81 8.0 15.0 0.00 2.00 0.00 98 1010.2
20221002055054 65 69 9.0 16.0 0.00 2.00 0.00 98 1010.2
20221002054555 65 61 12.0 16.0 0.00 2.00 0.00 98 1010.2
20221002054051 65 47 9.0 15.0 0.00 2.00 0.00 98 1010.2
20221002053553 65 70 8.0 15.0 0.00 2.00 0.00 98 1010.2
20221002053055 65 62 8.0 15.0 0.00 2.00 0.00 98 1010.2
20221002052549 65 60 6.0 13.0 0.00 2.00 0.00 98 1010.2
20221002052049 65 53 6.0 13.0 0.00 2.00 0.00 98 1010.3
20221002051547 65 58 8.0 14.0 0.00 2.00 0.00 98 1010.2
20221002051047 65 49 6.0 14.0 0.00 2.00 0.00 98 1010.3
20221002050547 65 51 7.0 13.0 0.00 2.00 0.00 98 1010.2
20221002050100 65 70 7.0 14.0 0.00 2.00 0.00 98 1010.1
20221002045545 65 338 8.0 16.0 0.00 2.39 0.00 98 1010.2
20221002045045 65 82 10.0 16.0 0.00 2.39 0.00 98 1010.3
20221002044543 65 65 6.0 14.0 0.00 2.39 0.00 98 1010.4
20221002044042 65 68 5.0 14.0 0.00 2.39 0.00 98 1010.4
20221002043546 65 72 6.0 16.0 0.00 2.39 0.00 98 1010.4
20221002043042 65 67 5.0 12.0 0.00 2.39 0.00 98 1010.4
20221002042541 65 67 8.0 15.0 0.00 2.39 0.00 98 1010.4
20221002042041 65 34 6.0 15.0 0.00 2.39 0.00 98 1010.4
20221002041541 65 37 7.0 18.0 0.00 2.39 0.00 98 1010.5
20221002041039 66 63 8.0 18.0 0.00 2.39 0.00 98 1010.4
20221002040537 66 49 6.0 14.0 0.00 2.39 0.00 98 1010.4
20221002040036 66 60 5.0 13.0 0.00 2.39 0.00 98 1010.5
20221002035535 66 98 8.0 13.0 0.00 2.54 2.39 98 1010.4
20221002035038 66 65 3.0 13.0 0.00 2.54 2.39 98 1010.4
20221002034543 66 73 4.0 13.0 0.00 2.54 2.39 98 1010.4
20221002034032 66 32 4.0 12.0 0.00 2.54 2.39 98 1010.4
20221002033532 66 74 8.0 12.0 0.00 2.54 2.39 98 1010.4
20221002033032 66 56 6.0 12.0 0.00 2.54 2.39 98 1010.3
20221002032531 66 72 4.0 9.0 0.00 2.54 2.39 98 1010.4
20221002032031 66 46 4.0 11.0 0.00 2.54 2.39 98 1010.4
20221002031531 66 70 7.0 12.0 0.00 2.54 2.39 98 1010.4
20221002031029 67 59 5.0 12.0 0.00 2.54 2.39 98 1010.3
20221002030534 67 62 5.0 10.0 0.00 2.54 2.39 98 1010.4
20221002030032 67 60 6.0 11.0 0.00 2.54 2.39 98 1010.4
20221002025529 67 59 6.0 11.0 0.00 2.83 2.39 98 1010.4
20221002025030 67 27 5.0 10.0 0.00 2.83 2.39 98 1010.4
20221002024529 67 53 5.0 11.0 0.00 2.83 2.39 98 1010.4
20221002024028 67 70 5.0 11.0 0.00 2.83 2.39 98 1010.5
20221002023530 67 78 3.0 7.0 0.00 2.83 2.39 98 1010.4
20221002023039 67 35 3.0 7.0 0.00 2.83 2.39 98 1010.3
20221002022529 67 77 3.0 6.0 0.00 2.83 2.39 98 1010.4
20221002022028 67 36 2.0 8.0 0.00 2.83 2.39 98 1010.4
20221002021528 67 63 5.0 8.0 0.00 2.83 2.39 98 1010.4
20221002021028 67 92 2.0 6.0 0.00 2.83 2.39 98 1010.4
20221002020526 67 72 2.0 5.0 0.00 2.83 2.39 98 1010.4
20221002020029 67 58 1.0 5.0 0.00 2.83 2.39 98 1010.5